American Canyon, CA

11:41 AM PST on February 26, 2017 (GMT -0800)
Napa County

Weather History for KAPC - November, 2014

Change the Weather History Date:

Monday, November 10, 2014

  Actual Average Record
Temperature  
Mean Temperature 57 °F 53 °F  
Max Temperature 69 °F 66 °F 80 °F (2016)
Min Temperature 44 °F 40 °F 28 °F (2000)
Degree Days  
Heating Degree Days 8    
Month to date heating degree days 83  
Since 1 July heating degree days 241  
Cooling Degree Days 0    
Month to date cooling degree days 0  
Year to date cooling degree days 267  
Growing Degree Days 6 (Base 50)    
Moisture  
Dew Point 51 °F    
Average Humidity 84    
Maximum Humidity 100    
Minimum Humidity 68    
Precipitation  
Precipitation 0.00 in - 1.04 in (1993)
Month to date precipitation 0.00  
Year to date precipitation 9.40  
Since 1 July precipitation 1.13  
Sea Level Pressure  
Sea Level Pressure 29.81 in    
Wind  
Wind Speed 5 mph (NNW)    
Max Wind Speed 15 mph    
Max Gust Speed 17 mph    
Visibility 4 miles    
Events Fog    
T = Trace of Precipitation, MM = Missing Value Source: NWS Daily Summary

Daily Weather History Graph

Daily Weather History Graph

Search for Another Location

Airport or City:

Trip Planner

Search our weather history database for the weather conditions in past years. The results will help you decide how hot, cold, wet, or windy it might be!

Date:

Astronomy

Nov. 10, 2014 Rise Set
Actual Time 6:44 AM PST 5:00 PM PST
Civil Twilight 6:17 AM PST 5:28 PM PST
Nautical Twilight 5:45 AM PST 6:00 PM PST
Astronomical Twilight 5:14 AM PST 6:31 PM PST
Moon 8:33 PM PST (11/10) 10:11 AM PST (11/10)
Length of Visible Light 11h 11m
Length of Day
10h 15m
Waning Gibbous, 84% of the Moon is Illuminated
Nov 10
Waning Gibbous
Nov 14
Last Quarter
Nov 22
New
Nov 29
First Quarter
Dec 6
Full

Hourly Weather History & Observations

Time (PST) Temp. Windchill Dew Point Humidity Pressure Visibility Wind Dir Wind Speed Gust Speed Precip Events Conditions
12:28 AM 48.9 °F - 48.0 °F 97% 29.84 in 2.0 mi Calm Calm - N/A   Partly Cloudy
12:38 AM 48.9 °F - 48.9 °F 100% 29.84 in 5.0 mi NNE 4.6 mph - N/A   Partly Cloudy
12:54 AM 48.0 °F - 48.0 °F 100% 29.82 in 4.0 mi Calm Calm - N/A   Partly Cloudy
1:03 AM 45.0 °F - 45.0 °F 100% 29.84 in 1.8 mi Calm Calm - N/A   Partly Cloudy
1:07 AM 44.1 °F - 44.1 °F 100% 29.84 in 0.8 mi Calm Calm - N/A   Mist
1:15 AM 45.0 °F - 45.0 °F 100% 29.84 in 0.2 mi Calm Calm - N/A Fog Fog
1:54 AM 45.0 °F 43.5 °F 45.0 °F 100% 29.81 in 0.2 mi NE 3.5 mph - N/A Fog Fog
2:03 AM 46.0 °F 44.8 °F 46.0 °F 100% 29.83 in 1.2 mi NNE 3.5 mph - N/A   Overcast
2:06 AM 46.9 °F - 46.9 °F 100% 29.82 in 3.0 mi NNE 3.5 mph - N/A   Overcast
2:17 AM 46.9 °F - 46.9 °F 100% 29.82 in 7.0 mi Calm Calm - N/A   Mostly Cloudy
2:47 AM 45.0 °F 43.5 °F 45.0 °F 100% 29.81 in 1.8 mi ENE 3.5 mph - N/A   Overcast
2:51 AM 44.6 °F 43.1 °F 44.6 °F 100% 29.81 in 0.5 mi NE 3.5 mph - N/A Fog Fog
2:54 AM 45.0 °F 43.5 °F 45.0 °F 100% 29.79 in 0.5 mi NNE 3.5 mph - N/A Fog Fog
3:01 AM 48.0 °F - 48.0 °F 100% 29.82 in 1.0 mi Calm Calm - N/A   Overcast
3:04 AM 46.9 °F - 46.9 °F 100% 29.81 in 3.0 mi Calm Calm - N/A   Overcast
3:23 AM 46.0 °F 44.8 °F 46.0 °F 100% 29.82 in 1.8 mi North 3.5 mph - N/A   Overcast
3:29 AM 48.0 °F - 48.0 °F 100% 29.82 in 0.8 mi NNE 4.6 mph - N/A   Overcast
3:36 AM 48.9 °F - 48.9 °F 100% 29.82 in 0.2 mi North 3.5 mph - N/A Fog Fog
3:54 AM 53.1 °F - 53.1 °F 100% 29.79 in 0.2 mi NNE 5.8 mph - N/A Fog Fog
4:05 AM 51.1 °F - 51.1 °F 100% 29.81 in 1.2 mi North 5.8 mph - N/A   Overcast
4:08 AM 51.1 °F - 51.1 °F 100% 29.81 in 4.0 mi North 4.6 mph - N/A   Mostly Cloudy
4:30 AM 50.0 °F - 48.9 °F 96% 29.81 in 1.8 mi Calm Calm - N/A   Mostly Cloudy
4:38 AM 48.0 °F - 48.0 °F 100% 29.81 in 3.0 mi Calm Calm - N/A   Mostly Cloudy
4:47 AM 48.9 °F - 48.9 °F 100% 29.81 in 1.8 mi Calm Calm - N/A   Overcast
4:54 AM 50.0 °F - 50.0 °F 100% 29.78 in 1.0 mi Calm Calm - N/A   Overcast
4:58 AM 50.0 °F - 50.0 °F 100% 29.81 in 0.5 mi Calm Calm - N/A Fog Fog
5:54 AM 48.0 °F - 48.0 °F 100% 29.79 in 0.2 mi ESE 3.5 mph - N/A Fog Fog
6:54 AM 51.1 °F - 51.1 °F 100% 29.80 in 0.2 mi NNE 3.5 mph - N/A Fog Fog
7:35 AM 52.0 °F - 52.0 °F 100% 29.83 in 0.2 mi Calm Calm - N/A Fog Fog
7:54 AM 52.0 °F - 52.0 °F 100% 29.81 in 0.2 mi Calm Calm - N/A Fog Fog
8:54 AM 53.1 °F - 53.1 °F 100% 29.82 in 0.2 mi Calm Calm - N/A Fog Fog
9:54 AM 55.9 °F - 55.9 °F 100% 29.83 in 0.2 mi Calm Calm - N/A Fog Fog
10:04 AM 55.0 °F - 55.0 °F 100% 29.85 in 1.0 mi Calm Calm - N/A   Overcast
10:10 AM 55.9 °F - 55.9 °F 100% 29.85 in 3.0 mi Calm Calm - N/A   Overcast
10:35 AM 57.0 °F - 55.9 °F 96% 29.85 in 10.0 mi Variable 3.5 mph - N/A   Scattered Clouds
10:54 AM 60.1 °F - 55.9 °F 86% 29.82 in 10.0 mi SW 4.6 mph - N/A   Clear
11:54 AM 68.0 °F - 57.9 °F 70% 29.80 in 10.0 mi SW 6.9 mph - N/A   Clear
12:54 PM 68.0 °F - 57.9 °F 70% 29.78 in 9.0 mi WSW 9.2 mph - N/A   Clear
1:54 PM 68.0 °F - 57.0 °F 68% 29.77 in 9.0 mi SSW 9.2 mph - N/A   Clear
2:54 PM 66.0 °F - 55.9 °F 70% 29.77 in 10.0 mi SSW 11.5 mph - N/A   Clear
3:54 PM 63.0 °F - 55.9 °F 78% 29.77 in 10.0 mi SSW 10.4 mph - N/A   Clear
4:54 PM 59.0 °F - 55.0 °F 87% 29.77 in 10.0 mi SSW 10.4 mph - N/A   Clear
5:54 PM 57.0 °F - 55.0 °F 93% 29.78 in 10.0 mi South 6.9 mph - N/A   Clear
6:54 PM 55.9 °F - 54.0 °F 93% 29.78 in 10.0 mi South 4.6 mph - N/A   Clear
7:54 PM 55.0 °F - 54.0 °F 96% 29.77 in 10.0 mi SSE 6.9 mph - N/A   Clear
8:54 PM 54.0 °F - 53.1 °F 97% 29.80 in 6.0 mi WSW 6.9 mph - N/A   Clear
9:54 PM 54.0 °F - 53.1 °F 97% 29.81 in 5.0 mi West 6.9 mph - N/A   Mostly Cloudy
10:22 PM 55.0 °F - 54.0 °F 96% 29.84 in 6.0 mi West 5.8 mph - N/A   Overcast
10:54 PM 55.0 °F - 54.0 °F 96% 29.82 in 7.0 mi West 6.9 mph - N/A   Overcast
11:54 PM 55.9 °F - 54.0 °F 93% 29.83 in 8.0 mi NNW 6.9 mph - N/A   Overcast